Weather History for KHFD - June, 2014

Change the Weather History Date:

Sunday, June 1, 2014

  Actual Average Record
Temperature  
Mean Temperature 60 °F -  
Max Temperature 77 °F 75 °F 95 °F (1937)
Min Temperature 45 °F 54 °F 39 °F (1967)
Degree Days  
Heating Degree Days 5    
Growing Degree Days 10 (Base 50)    
Moisture  
Dew Point 41 °F    
Average Humidity 53    
Maximum Humidity 90    
Minimum Humidity 23    
Precipitation  
Precipitation 0.00 in - - ()
Sea Level Pressure  
Sea Level Pressure 30.29 in    
Wind  
Wind Speed 2 mph (South)    
Max Wind Speed 12 mph    
Max Gust Speed -    
Visibility 10 miles    
Events      
Averages and records for this station are not official NWS values.
T = Trace of Precipitation, MM = Missing Value Source: NWS Daily Summary

Daily Weather History Graph

Daily Weather History Graph

Search for Another Location

Airport or City:

Trip Planner

Search our weather history database for the weather conditions in past years. The results will help you decide how hot, cold, wet, or windy it might be!

Date:

Astronomy

Jun. 01, 2014 Rise Set
Actual Time 5:18 AM EDT 8:18 PM EDT
Civil Twilight 4:45 AM EDT 8:52 PM EDT
Nautical Twilight 4:02 AM EDT 9:34 PM EDT
Astronomical Twilight 3:12 AM EDT 10:25 PM EDT
Moon 8:49 AM EDT (6/1) 11:10 PM EDT (6/1)
Length of Visible Light 16h 07m
Length of Day
15h 00m
Waxing Crescent, 14% of the Moon is Illuminated
Jun 1
Waxing Crescent
Jun 5
First Quarter
Jun 13
Full
Jun 19
Last Quarter
Jun 27
New

Hourly Weather History & Observations

Time (EDT) Temp. Dew Point Humidity Pressure Visibility Wind Dir Wind Speed Gust Speed Precip Events Conditions
12:53 AM 51.1 °F 43.0 °F 74% 30.30 in 10.0 mi Calm Calm - N/A   Clear
1:53 AM 48.9 °F 39.9 °F 71% 30.31 in 10.0 mi Calm Calm - N/A   Clear
2:53 AM 46.0 °F 41.0 °F 83% 30.31 in 10.0 mi Calm Calm - N/A   Clear
3:53 AM 46.0 °F 41.0 °F 83% 30.32 in 10.0 mi Calm Calm - N/A   Clear
4:53 AM 45.0 °F 42.1 °F 90% 30.34 in 10.0 mi Calm Calm - N/A   Clear
5:53 AM 45.0 °F 42.1 °F 90% 30.34 in 10.0 mi Calm Calm - N/A   Clear
6:53 AM 50.0 °F 45.0 °F 83% 30.35 in 10.0 mi Calm Calm - N/A   Clear
7:53 AM 54.0 °F 48.0 °F 80% 30.36 in 10.0 mi ENE 3.5 mph - N/A   Clear
8:53 AM 59.0 °F 50.0 °F 72% 30.36 in 10.0 mi Variable 3.5 mph - N/A   Clear
10:53 AM 69.1 °F 48.0 °F 47% 30.35 in 10.0 mi NNE 6.9 mph - N/A   Clear
11:53 AM 71.1 °F 42.1 °F 35% 30.33 in 10.0 mi Variable 3.5 mph - N/A   Clear
12:53 PM 73.0 °F 37.0 °F 27% 30.31 in 10.0 mi Calm Calm - N/A   Clear
1:53 PM 75.0 °F 39.0 °F 27% 30.30 in 10.0 mi Calm Calm - N/A   Clear
2:53 PM 75.0 °F 35.1 °F 23% 30.27 in 10.0 mi Calm Calm - N/A   Clear
3:53 PM 75.9 °F 36.0 °F 23% 30.25 in 10.0 mi WSW 4.6 mph - N/A   Clear
4:53 PM 75.9 °F 35.1 °F 23% 30.24 in 10.0 mi SSE 5.8 mph - N/A   Clear
5:53 PM 75.9 °F 39.9 °F 27% 30.23 in 10.0 mi South 5.8 mph - N/A   Clear
6:53 PM 73.0 °F 39.9 °F 30% 30.23 in 10.0 mi South 11.5 mph - N/A   Clear
7:53 PM 70.0 °F 34.0 °F 27% 30.24 in 10.0 mi South 6.9 mph - N/A   Clear
8:53 PM 64.9 °F 41.0 °F 42% 30.24 in 10.0 mi South 4.6 mph - N/A   Clear
9:53 PM 63.0 °F 41.0 °F 45% 30.23 in 10.0 mi South 4.6 mph - N/A   Clear
11:53 PM 57.9 °F 43.0 °F 58% 30.24 in 10.0 mi South 3.5 mph - N/A   Clear